DMSP 5D-2 F13 DEB, 40487

Orbit data source: Space-Track

DMSP 5D-2 F13 DEB, 40487 is space debris in SSO originally from a launch on Fri, 24 Mar 1995 UTC launched from the Air Force Western Test Range (AFWTR). Debris objects in space refer to the collection of defunct objects orbiting the Earth. Examples of debris include non-operational satellites, rocket bodies, and fragments generated from explosions, collisions, or faulty payload assembly.

Loading next visibility...
Identifier
40487, 1995-015CA
Orbit
SSO
Country
Flag of USUS
Related business
Manufacturer
Unknown
Mission
Spacecraft
Bus & Motor
Unknown
Mass
Unknown
Launch date (UTC)
1995-03-24 (31 years ago)
Launch vehicle
Unknown
Launch site
Air Force Western Test Range (AFWTR)
Object type
Payload
Rocket body
Debris
Shape & HBR
Unknown shape, 0.1 m
Radar Cross Section
Small (<0.1 m²)

Expand to show TLE details & history
Last TLE update: 12 hours ago

TLE from 12 hours ago
0 DMSP 5D-2 F13 DEB
1 40487U 95015CA  25291.23439519  .00004683  00000-0  22590-2 0  9999
2 40487  99.0352 287.2511 0054589 109.9455 250.7611 14.18351627544152
Epoch: 2025-10-18T05:37Z
TLE epoch observation values (Epoch: 2025-10-18T05:37:31.744Z)
Latitude
-0.00002°
Longitude
175.9005°
Altitude
846.996 km
Speed
7.422 km/s
True Right ascension
19h 09m 00s
True Declination
0° 00' 00"
Sunlit
Object was in daylight at epoch
Visualization orbit readout
Latitude
Unknown
Longitude
Unknown
Altitude
Unknown
Speed
Unknown
Apparent Right ascension
Unknown
Apparent Declination
Unknown
Sunlit
N/A
Visualization observer readout
Local Sidereal Time
12:19:48
Azimuth
Unknown
Elevation
Unknown
Doppler factor
Unknown
Orbital elements
Apogee altitude
867.448 km
Perigee altitude
788.771 km
Semi-major axis
7,206.246 km
Eccentricity
0.00546
Inclination
99.0352°
RAAN
287.2511°
Arg. of periapsis
109.9455°
True anomaly
250.17183°
Mean anomaly
250.7611°
Eccentric anomaly
250.46633°
Mean motion
3.54797 °/min
Orbital period
101.47 mins
BSTAR
0.002259

Documentation

Showing up to 5 results
|